Date,TemperatureHighF,TemperatureAvgF,TemperatureLowF,DewpointHighF,DewpointAvgF,DewpointLowF,HumidityHigh,HumidityAvg,HumidityLow,PressureMaxIn,PressureMinIn,WindSpeedMaxMPH,WindSpeedAvgMPH,GustSpeedMaxMPH,PrecipitationSumIn
2013-1-1,59,44,34,41,35,31,98,76,41,30.30,30.16,4,0,10,0.00
2013-1-2,65,49,33,33,29,26,87,52,23,30.22,30.09,9,2,22,0.00
2013-1-3,68,48,30,34,26,21,94,52,17,30.27,30.14,10,3,17,0.00
2013-1-4,65,47,28,31,25,19,91,50,17,30.36,30.24,8,2,11,0.00
2013-1-5,67,46,29,32,27,23,92,54,20,30.38,30.24,7,1,12,0.00
2013-1-6,53,46,37,45,40,32,96,81,63,30.28,30.09,5,1,10,0.02
2013-1-7,64,50,36,43,35,28,98,65,29,30.16,30.05,10,3,22,0.00
2013-1-8,75,52,33,42,36,31,91,61,24,30.21,30.12,9,2,11,0.00
2013-1-9,72,53,38,48,42,37,98,71,32,30.24,30.08,8,2,15,0.00
2013-1-10,53,48,39,49,42,26,98,80,49,30.12,29.95,6,2,17,0.02
2013-1-11,52,40,27,33,29,25,95,69,37,30.23,30.08,3,1,11,0.00
2013-1-12,52,38,26,32,28,21,96,71,30,30.22,30.11,6,1,9,0.00
2013-1-13,54,39,25,28,26,19,94,64,35,30.21,30.09,4,1,12,0.00
2013-1-14,50,39,29,19,14,9,53,37,19,30.39,30.18,8,4,24,0.00
2013-1-15,61,42,26,31,24,18,76,52,30,30.49,30.35,7,2,16,0.00
2013-1-18,78,56,34,34,29,26,80,42,17,30.25,30.13,5,1,11,0.00
2013-1-19,77,57,34,34,26,22,80,38,14,30.29,30.16,6,2,12,0.00
2013-1-20,77,55,32,31,25,20,79,39,12,30.26,30.09,9,2,17,0.00
2013-1-21,79,56,33,33,23,18,74,36,11,30.21,30.09,8,2,14,0.00
2013-1-22,80,56,33,32,26,19,75,38,11,30.21,30.09,5,1,9,0.00
2013-1-23,75,60,46,42,37,32,69,45,28,30.20,30.12,7,2,16,0.00
2013-1-24,65,58,52,58,52,40,97,82,51,30.28,30.19,4,1,10,0.10
2013-1-25,60,57,56,59,56,54,98,96,90,30.22,30.03,5,1,10,0.40
2013-1-26,60,57,54,59,56,54,99,98,95,30.06,29.97,4,2,12,0.19
2013-1-27,56,52,46,55,49,44,98,91,73,30.11,30.03,9,5,22,0.00
2013-1-28,55,46,37,45,39,34,98,78,47,30.23,30.07,6,2,14,0.00
2013-1-29,58,45,33,47,40,32,98,84,59,30.29,30.20,6,1,14,0.00
2013-1-30,70,51,37,48,41,36,98,73,37,30.39,30.27,5,1,12,0.00
2013-1-31,75,59,38,45,42,37,97,59,30,30.32,30.17,6,2,13,0.00
2013-2-1,77,57,40,48,43,39,96,65,26,30.26,30.17,4,0,10,0.03
2013-2-2,74,60,46,49,45,41,92,63,31,30.30,30.18,6,1,10,0.00
2013-2-3,72,61,51,52,50,46,90,69,41,30.22,30.07,4,1,14,0.00
2013-2-4,75,58,41,52,46,40,97,71,31,30.17,30.03,6,1,13,0.00
2013-2-5,67,52,40,54,48,39,97,87,62,30.15,30.03,8,2,11,0.00
2013-2-6,65,54,47,49,48,45,98,83,56,30.18,30.07,7,2,10,0.00
2013-2-7,66,52,42,51,47,41,99,85,55,30.20,30.04,8,3,16,0.00
2013-2-8,50,44,41,46,42,39,97,92,77,30.06,29.93,8,2,24,0.28
2013-2-9,54,44,33,42,38,33,100,83,51,30.17,29.98,3,1,13,0.00
2013-2-10,52,43,33,44,40,32,99,88,65,30.17,30.06,4,1,10,0.00
2013-2-11,58,46,34,43,32,22,99,66,25,30.30,30.11,13,3,23,0.00
2013-2-12,63,46,30,37,32,28,95,64,29,30.41,30.27,6,1,11,0.00
2013-2-13,70,50,33,44,36,32,96,65,25,30.34,30.18,4,1,10,0.00
2013-2-14,75,55,36,43,38,33,96,59,23,30.26,30.12,8,1,13,0.00
2013-2-15,77,57,41,41,34,27,82,49,16,30.29,30.21,8,1,12,0.00
2013-2-16,79,58,37,37,31,24,84,44,13,30.28,30.06,5,1,11,0.00
2013-2-17,68,52,35,49,39,31,97,66,34,30.09,29.97,10,3,18,0.00
2013-2-18,65,52,45,48,46,44,98,83,49,30.13,29.99,6,3,12,0.00
2013-2-19,50,47,43,47,44,41,96,88,82,30.05,29.76,6,3,15,0.22
2013-2-20,57,46,37,41,38,35,97,77,49,30.07,29.74,6,2,11,0.01
2013-2-21,57,46,36,43,38,35,96,76,45,30.16,30.02,6,2,12,0.00
2013-2-22,64,48,33,43,37,30,98,71,28,30.26,30.16,6,1,11,0.00
2013-2-23,67,49,35,44,39,34,97,74,35,30.24,29.96,7,2,16,0.00
2013-2-24,65,52,36,43,26,15,97,46,15,30.27,30.05,12,4,19,0.00
2013-2-25,70,51,31,31,27,23,78,45,18,30.31,30.12,6,2,14,0.00
2013-2-26,73,52,32,35,29,24,89,49,16,30.21,30.04,9,2,17,0.00
2013-2-27,71,56,35,32,26,20,79,37,17,30.35,30.21,8,3,27,0.00
2013-2-28,76,57,36,32,27,23,77,38,14,30.40,30.30,10,2,16,0.00
2013-3-1,83,62,40,35,31,27,73,38,14,30.40,30.22,5,1,11,0.00
2013-3-2,85,63,42,39,34,25,77,42,12,30.33,30.15,5,1,13,0.00
2013-3-3,74,60,46,50,41,35,95,53,27,30.19,30.04,6,2,16,0.00
2013-3-4,70,56,47,52,49,46,97,80,50,30.16,30.07,8,3,14,0.00
2013-3-5,70,56,47,53,49,47,99,82,46,30.18,30.06,7,3,18,0.00
2013-3-6,66,55,48,50,47,44,95,75,51,30.21,30.06,7,4,14,0.00
2013-3-7,53,50,46,52,49,45,98,95,87,30.08,29.98,7,3,10,0.08
2013-3-8,47,47,46,46,45,43,98,93,90,30.09,29.94,6,4,10,0.02
2013-3-9,59,49,46,48,46,45,98,90,68,30.24,30.09,6,2,10,0.00
2013-3-10,62,62,62,40,40,40,44,44,44,30.22,30.22,1,1,11,0.00
2013-3-11,76,68,43,43,42,40,90,46,31,30.26,30.09,0,0,13,0.00
2013-3-12,86,73,47,47,41,34,89,39,16,30.19,30.06,6,1,10,0.00
2013-3-13,91,68,47,54,45,31,92,53,12,30.21,30.09,6,1,10,0.00
2013-3-14,93,70,49,51,45,36,90,51,14,30.19,30.07,4,1,13,0.00
2013-3-15,87,68,51,53,48,39,87,54,20,30.13,29.98,8,2,18,0.00
2013-3-16,78,62,48,52,47,40,88,63,27,30.04,29.93,9,3,17,0.00
2013-3-17,77,59,49,54,51,48,99,80,40,30.05,29.98,9,4,15,0.00
2013-3-18,70,58,50,55,52,49,99,83,56,30.14,30.04,7,3,13,0.00
2013-3-19,75,60,49,56,52,48,98,80,50,30.16,30.08,8,2,14,0.00
2013-3-20,77,62,51,55,52,48,95,72,45,30.16,30.03,9,2,14,0.00
2013-3-21,73,61,50,54,51,47,96,74,47,30.04,29.87,9,3,18,0.00
2013-3-22,78,60,52,56,51,42,97,76,30,29.98,29.85,11,4,15,0.00
2013-3-23,79,60,45,54,47,36,97,70,21,30.08,29.97,7,2,16,0.00
2013-3-24,83,63,47,52,46,33,97,63,17,30.08,29.93,6,1,13,0.00
2013-3-25,82,64,47,53,48,41,94,63,24,30.06,29.94,7,2,16,0.00
2013-3-26,77,61,47,53,46,36,90,63,25,30.03,29.94,10,3,20,0.00
2013-3-27,73,59,50,53,50,46,98,77,46,30.11,29.99,11,3,21,0.00
2013-3-28,79,62,47,53,49,46,95,68,34,30.14,30.06,6,1,16,0.00
2013-3-29,84,64,49,57,52,38,96,70,20,30.19,30.09,7,3,15,0.00
2013-3-30,80,64,55,56,54,48,95,74,33,30.20,30.07,9,3,15,0.00
2013-3-31,69,59,51,55,52,49,93,78,58,30.19,30.08,7,2,19,0.00
2013-4-1,69,59,50,53,50,49,96,76,49,30.23,30.11,9,3,20,0.00
2013-4-2,79,62,52,55,51,50,96,72,37,30.16,30.02,8,3,13,0.00
2013-4-3,87,66,49,56,50,42,96,64,22,30.14,30.04,8,2,12,0.00
2013-4-4,82,66,52,57,51,45,96,65,27,30.16,30.06,12,2,22,0.00
2013-4-5,71,60,52,57,54,51,97,83,59,30.16,30.03,8,3,13,0.00
2013-4-6,75,62,54,57,54,52,96,77,48,30.13,30.01,7,4,13,0.00
2013-4-7,75,61,52,57,54,50,98,80,50,30.06,29.88,7,3,15,0.00
2013-4-8,59,56,51,54,49,44,96,79,58,29.89,29.73,12,6,27,0.00
2013-4-9,74,58,43,48,37,25,97,57,16,30.08,29.88,14,4,26,0.00
2013-4-10,82,63,42,40,34,22,84,43,11,30.15,30.03,9,3,23,0.00
2013-4-11,78,61,45,53,43,36,92,55,24,30.10,29.84,9,3,21,0.00
2013-4-12,87,64,53,56,53,50,96,74,28,29.95,29.80,8,4,15,0.00
2013-4-13,76,61,53,58,54,52,98,81,51,29.97,29.87,10,4,15,0.00
2013-4-14,61,55,51,53,51,49,93,85,71,29.96,29.87,9,4,14,0.00
2013-4-15,62,56,51,52,50,48,93,81,64,29.96,29.89,8,4,18,0.00
2013-4-16,61,53,45,48,44,39,92,74,54,30.04,29.95,7,3,17,0.00
2013-4-17,71,56,41,43,32,18,95,51,13,30.15,30.04,14,6,27,0.00
2013-4-20,67,66,65,43,43,42,44,42,41,30.06,30.04,3,2,9,0.00
2013-4-21,90,70,50,49,43,37,74,43,16,30.08,29.99,8,3,17,0.00
2013-4-22,82,64,50,54,49,45,93,62,28,30.08,29.92,10,3,18,0.00
2013-4-23,88,63,52,55,51,44,97,72,22,30.02,29.89,10,4,17,0.00
2013-4-24,67,58,53,56,53,49,96,84,67,30.03,29.96,8,3,20,0.00
2013-4-25,74,62,55,52,51,50,86,68,46,30.18,30.03,8,3,14,0.00
2013-4-26,86,65,48,55,51,47,95,67,29,30.22,30.12,6,2,17,0.00
2013-4-27,95,71,52,58,52,36,90,59,13,30.23,30.04,12,3,17,0.00
2013-4-28,96,73,53,57,54,47,93,58,20,30.09,29.90,10,2,24,0.00
2013-4-29,87,69,53,56,52,46,98,64,27,29.97,29.83,10,4,16,0.00
2013-4-30,77,63,54,56,55,53,97,77,47,29.95,29.85,9,5,19,0.00
2013-5-1,91,70,58,58,53,40,91,64,17,30.16,29.96,9,4,16,0.00
2013-5-2,92,75,52,56,28,13,94,32,6,30.22,30.08,15,7,26,0.00
2013-5-3,94,73,49,42,28,17,57,25,6,30.14,29.86,5,1,12,0.00
2013-5-4,80,66,52,55,44,27,90,50,15,29.92,29.81,11,5,23,0.00
2013-5-5,67,58,56,54,52,51,90,80,60,30.02,29.92,12,6,20,0.00
2013-5-6,62,58,54,58,54,52,99,89,73,30.09,30.00,7,4,16,0.33
2013-5-7,66,59,54,55,53,50,96,81,61,30.15,30.04,9,3,16,0.00
2013-5-8,70,61,54,55,53,50,96,76,51,30.16,30.10,5,2,13,0.01
2013-5-9,75,62,51,58,54,50,96,77,47,30.17,30.06,9,3,18,0.01
2013-5-10,89,70,54,61,56,50,98,69,26,30.16,30.04,7,3,16,0.00
2013-5-11,98,78,57,60,52,39,95,53,13,30.16,30.03,7,2,16,0.00
2013-5-12,99,82,59,59,47,33,84,40,10,30.16,29.99,7,2,18,0.00
2013-5-13,101,85,62,54,46,37,74,32,12,30.08,29.95,9,3,22,0.00
2013-5-14,92,77,61,58,48,29,85,45,11,30.08,29.96,10,5,19,0.00
2013-5-15,83,66,57,57,54,48,96,70,34,30.10,30.00,11,5,19,0.00
2013-5-16,81,60,56,59,36,-100,96,76,43,30.05,29.92,9,4,18,0.00
2013-5-17,77,64,57,59,49,-100,93,76,50,30.08,29.98,7,5,17,0.00
2013-5-18,64,60,59,57,56,54,92,86,74,30.09,30.07,5,3,10,0.00
2013-5-19,89,69,55,60,56,51,97,68,27,30.07,29.93,8,4,21,0.00
2013-5-20,94,75,56,60,52,38,92,56,14,30.02,29.92,11,3,16,0.00
2013-5-21,91,74,58,61,56,47,92,60,23,30.02,29.88,9,4,21,0.00
2013-5-22,80,64,58,58,55,45,96,74,38,29.93,29.83,10,6,21,0.00
2013-5-23,76,63,56,54,52,50,92,71,41,30.02,29.91,11,4,19,0.00
2013-5-24,78,65,56,53,49,36,91,62,23,30.06,29.98,8,5,19,0.00
2013-5-25,80,63,52,56,51,35,96,70,23,30.09,30.01,9,4,18,0.00
2013-5-26,77,63,53,55,53,52,97,75,45,30.13,30.04,8,4,16,0.00
2013-5-27,79,68,62,59,58,57,85,71,50,29.97,29.92,8,5,19,0.00
2013-5-28,72,61,57,58,57,56,95,86,62,29.96,29.89,5,3,13,0.00
2013-5-29,92,76,55,62,58,52,96,59,28,29.89,29.78,10,5,17,0.00
2013-5-30,87,76,60,60,57,53,94,55,34,29.95,29.85,9,5,13,0.00
2013-5-31,93,72,58,62,58,55,97,69,30,29.98,29.87,10,3,16,0.00
2013-6-1,104,82,68,63,56,37,78,50,10,29.95,29.78,12,6,18,0.00
2013-6-2,86,72,59,63,58,50,95,67,34,29.90,29.80,11,5,18,0.00
2013-6-3,84,67,58,59,58,55,95,75,37,29.96,29.86,11,4,16,0.00
2013-6-4,86,69,58,60,57,47,94,71,28,30.03,29.93,9,4,14,0.00
2013-6-5,90,73,58,61,59,57,95,66,36,30.08,29.94,9,4,14,0.00
2013-6-6,89,69,56,61,58,55,97,72,38,30.01,29.91,10,3,14,0.00
2013-6-7,90,74,57,62,59,54,97,63,32,29.98,29.83,10,4,17,0.00
2013-6-8,88,68,57,62,59,56,97,76,41,29.94,29.88,10,4,12,0.00
2013-6-9,91,73,59,61,53,33,96,58,13,29.99,29.91,10,5,21,0.00
2013-6-10,85,68,56,58,53,39,97,65,22,30.03,29.95,10,4,18,0.00
2013-6-11,97,75,56,61,54,43,88,56,17,30.02,29.93,9,3,17,0.00
2013-6-12,86,71,58,62,59,55,97,69,37,30.07,29.99,11,5,17,0.00
2013-6-13,93,71,59,61,59,58,96,70,34,30.08,29.95,9,4,15,0.00
2013-6-14,88,68,56,59,54,35,96,68,16,30.01,29.89,8,4,16,0.00
2013-6-15,87,65,54,58,53,40,97,72,19,30.05,29.96,8,4,16,0.00
2013-6-16,89,72,54,59,56,51,95,63,27,30.10,29.99,8,3,18,0.00
2013-6-17,92,74,58,59,56,49,86,58,28,30.06,29.94,9,3,16,0.00
2013-6-18,90,73,59,59,56,53,83,60,31,29.99,29.89,11,3,19,0.00
2013-6-19,86,71,57,61,58,52,97,67,32,29.94,29.85,10,4,17,0.00
2013-6-20,85,67,57,59,56,52,91,72,32,29.94,29.89,6,1,12,0.00
2013-6-22,89,78,63,59,56,53,78,50,32,29.99,29.86,10,5,16,0.00
2013-6-23,83,69,57,59,57,54,97,70,40,29.96,29.85,11,5,20,0.00
2013-6-24,81,67,58,62,58,56,95,76,47,30.02,29.92,7,4,15,0.00
2013-6-25,90,75,60,63,61,58,95,64,41,30.06,29.97,11,4,18,0.00
2013-6-26,99,81,65,64,61,58,86,57,28,30.07,29.98,11,3,16,0.00
2013-6-27,102,84,68,63,60,52,77,49,20,30.13,30.03,8,3,19,0.00
2013-6-28,105,87,68,61,58,54,72,41,19,30.09,29.94,10,3,19,0.00
2013-6-29,110,89,69,62,58,50,71,40,15,30.00,29.83,8,2,15,0.00
2013-6-30,105,86,71,65,58,51,67,42,17,29.91,29.81,12,4,20,0.00
2013-7-1,102,86,72,62,57,47,66,41,16,29.99,29.91,9,4,18,0.00
2013-7-2,101,81,70,65,60,52,66,50,20,30.06,29.98,12,2,16,0.00
2013-7-3,101,82,69,64,60,52,77,50,20,30.03,29.86,10,2,15,0.00
2013-7-4,99,82,68,61,56,46,75,47,20,29.92,29.81,12,4,18,0.00
2013-7-5,94,78,65,63,60,54,83,59,27,29.93,29.82,10,4,15,0.00
2013-7-6,96,76,64,65,63,61,91,68,34,29.91,29.80,9,3,15,0.00
2013-7-7,102,81,64,65,60,49,92,59,18,29.94,29.83,9,3,18,0.00
2013-7-8,108,83,65,64,56,40,85,50,10,30.02,29.91,11,2,21,0.00
2013-7-9,102,85,70,61,56,50,60,39,18,30.07,30.00,11,3,17,0.00
2013-7-10,88,78,74,61,55,-100,64,48,35,30.06,29.98,7,4,16,0.00
2013-7-11,86,76,70,67,64,55,84,68,46,30.07,29.95,6,2,12,0.01
2013-7-12,94,78,68,67,65,63,88,67,38,30.02,29.90,14,4,19,0.00
2013-7-13,97,80,65,65,61,51,93,59,21,30.03,29.91,8,3,24,0.00
2013-7-14,100,82,71,64,60,55,76,53,23,30.02,29.89,10,4,18,0.00
2013-7-15,99,80,68,61,55,47,73,46,18,29.96,29.86,8,2,23,0.00
2013-7-16,96,78,64,58,50,40,67,42,15,30.07,29.94,8,2,19,0.00
2013-7-17,101,76,58,56,47,30,77,48,9,30.11,30.02,9,2,15,0.00
2013-7-18,103,78,61,61,46,36,61,37,12,30.08,29.93,8,2,18,0.00
2013-7-19,95,78,66,62,57,45,78,53,19,29.99,29.87,10,3,16,0.00
2013-7-20,89,72,64,71,59,-100,88,69,48,29.96,29.85,7,3,15,0.00
2013-7-21,86,74,69,68,64,63,83,74,46,30.00,29.88,8,2,15,0.00
2013-7-22,92,77,68,67,64,62,88,68,43,30.06,29.98,9,4,19,0.00
2013-7-23,96,78,67,65,63,61,83,62,34,30.09,29.97,8,2,16,0.00
2013-7-24,100,82,68,64,62,58,77,55,29,30.05,29.94,10,4,18,0.00
2013-7-25,100,80,67,63,62,58,85,57,27,30.08,29.98,10,3,16,0.00
2013-7-26,96,76,68,65,63,62,81,65,37,30.15,30.04,8,3,11,0.00
2013-7-27,96,81,68,65,63,60,83,57,33,30.09,29.93,9,4,17,0.00
2013-7-28,91,74,61,63,58,46,96,64,22,30.00,29.91,11,5,19,0.00
2013-7-29,92,71,58,61,57,52,94,67,26,30.11,30.00,9,3,15,0.00
2013-7-30,93,75,61,61,58,51,89,61,26,30.17,30.06,8,4,14,0.05
2013-7-31,88,70,60,61,59,51,95,71,28,30.16,30.03,9,4,17,0.00
2013-8-1,89,70,57,61,56,46,97,67,23,30.10,29.96,8,4,13,0.00
2013-8-2,89,71,57,60,56,49,97,67,27,30.05,29.95,9,4,17,0.00
2013-8-3,90,73,58,61,58,49,93,65,25,30.07,29.96,8,3,15,0.00
2013-8-4,94,75,61,62,58,51,93,61,23,30.08,29.98,7,2,15,0.00
2013-8-5,98,76,60,59,55,42,85,55,15,30.07,29.97,10,2,15,0.00
2013-8-6,91,74,58,59,55,45,92,59,23,30.09,30.01,8,2,17,0.00
2013-8-7,93,74,59,59,55,47,90,55,21,30.13,30.01,7,2,16,0.00
2013-8-8,93,74,58,59,52,41,80,53,18,30.06,29.94,11,2,23,0.00
2013-8-9,88,72,57,59,55,43,94,61,21,30.03,29.94,9,4,16,0.00
2013-8-10,89,70,55,59,56,53,94,66,32,30.09,29.98,10,3,25,0.00
2013-8-11,93,74,57,60,56,47,89,58,21,30.06,29.93,7,2,15,0.00
2013-8-12,96,75,60,60,57,48,91,60,20,30.03,29.93,8,2,18,0.00
2013-8-13,101,73,61,63,52,-100,89,61,20,30.03,29.90,9,2,16,0.00
2013-8-14,106,76,62,62,59,43,89,64,12,29.99,29.86,10,3,17,0.00
2013-8-15,101,63,65,62,24,-100,85,45,16,30.01,29.92,9,4,18,0.00
2013-8-16,102,79,67,61,46,-100,74,41,19,30.02,29.94,10,4,23,0.00
2013-8-17,105,83,67,62,54,50,65,40,16,30.02,29.85,8,2,14,0.00
2013-8-18,101,83,69,61,57,52,66,43,22,29.95,29.85,10,3,19,0.00
2013-8-19,99,80,72,63,55,-100,70,51,30,29.98,29.88,8,3,13,0.00
2013-8-20,101,82,68,63,52,-100,79,45,17,29.98,29.88,8,2,16,0.00
2013-8-21,105,84,66,60,55,45,74,44,15,30.00,29.88,8,2,15,0.00
2013-8-22,106,90,67,59,50,43,57,30,12,30.01,29.85,11,5,19,0.00
2013-8-23,102,85,66,58,49,43,60,33,14,29.95,29.79,7,2,16,0.00
2013-8-24,97,82,63,56,48,38,68,36,13,29.94,29.83,9,3,17,0.00
2013-8-25,96,82,67,63,54,47,64,40,24,30.00,29.90,11,3,22,0.00
2013-8-26,90,82,74,66,64,59,67,55,44,30.01,29.90,5,2,10,0.00
2013-8-27,93,82,72,65,64,62,74,56,39,29.94,29.89,7,2,13,0.00
2013-8-28,101,94,82,62,61,59,51,35,25,29.98,29.87,8,4,16,0.00
2013-8-29,99,87,73,67,63,60,66,46,29,30.04,29.96,9,2,17,0.00
2013-8-30,96,84,78,76,70,65,90,64,38,30.09,29.98,8,4,18,0.11
2013-8-31,93,83,76,73,71,69,85,69,48,30.07,29.95,7,3,21,0.00
2013-9-1,100,83,74,71,69,67,87,66,36,30.03,29.90,8,3,16,0.00
2013-9-2,99,85,70,69,66,63,87,57,33,30.01,29.88,8,3,23,0.00
2013-9-3,100,88,75,67,62,60,73,46,27,29.99,29.89,7,3,16,0.00
2013-9-4,102,88,73,64,61,58,73,44,24,30.02,29.91,11,2,25,0.00
2013-9-5,104,89,74,62,59,56,65,39,21,29.99,29.91,10,3,27,0.00
2013-9-6,102,87,74,63,57,53,59,39,20,29.98,29.86,7,2,13,0.00
2013-9-7,99,85,73,68,60,55,61,45,26,29.97,29.89,8,2,20,0.00
2013-9-8,98,83,68,65,57,44,80,47,16,29.95,29.81,10,2,17,0.00
2013-9-9,95,83,73,60,55,50,52,39,26,29.89,29.79,13,4,20,0.00
2013-9-10,91,76,62,61,56,51,93,56,27,30.02,29.88,6,4,18,0.00
2013-9-11,92,74,60,61,57,47,91,62,24,30.06,29.96,7,2,14,0.00
2013-9-12,98,78,60,60,53,40,91,51,15,30.02,29.88,7,2,16,0.00
2013-9-13,101,81,60,57,50,39,73,41,13,29.92,29.72,8,2,17,0.00
2013-9-14,104,81,63,62,54,41,71,46,12,29.80,29.67,10,2,19,0.00
2013-9-15,104,84,66,62,55,43,76,46,13,29.85,29.74,7,2,20,0.00
2013-9-16,101,84,65,64,53,43,71,42,14,29.90,29.78,7,2,14,0.00
2013-9-17,94,77,60,62,56,47,86,55,20,29.88,29.76,9,4,18,0.00
2013-9-18,69,62,58,59,58,57,97,89,68,29.85,29.82,5,2,9,0.00
2013-9-19,95,70,57,63,58,55,92,71,26,29.89,29.79,9,2,14,0.00
2013-9-20,81,67,61,64,61,60,97,83,50,29.95,29.87,11,3,16,0.00
2013-9-21,85,70,61,61,59,57,96,72,40,29.96,29.82,7,3,17,0.00
2013-9-22,83,66,57,59,55,47,95,74,28,29.91,29.82,7,3,14,0.00
2013-9-23,97,75,55,58,49,36,91,53,12,29.97,29.86,6,2,13,0.00
2013-9-24,96,77,57,56,49,39,81,44,14,30.01,29.89,8,3,23,0.00
2013-9-25,79,67,58,57,53,46,88,66,36,29.93,29.76,15,5,21,0.00
2013-9-26,71,63,57,56,53,47,87,71,43,29.95,29.80,6,4,15,0.00
2013-9-27,84,67,47,51,40,30,92,48,15,30.07,29.96,13,3,19,0.00
2013-9-28,90,69,48,42,36,21,73,38,8,30.13,30.01,4,1,12,0.00
2013-9-29,92,71,50,45,40,30,72,39,11,30.15,30.01,6,2,14,0.00
2013-9-30,91,69,51,49,43,34,73,45,14,30.07,29.91,5,1,13,0.00
2013-10-1,80,72,63,59,54,49,87,58,34,29.98,29.92,6,5,18,0.00
2013-10-2,82,66,57,59,56,50,98,75,37,30.04,29.91,10,3,18,0.00
2013-10-3,78,65,58,60,57,54,95,77,47,29.99,29.86,6,3,16,0.00
2013-10-4,86,71,54,57,38,22,96,46,10,30.13,29.95,16,6,24,0.00
2013-10-5,89,73,56,34,26,17,39,20,7,30.22,30.11,12,4,21,0.00
2013-10-6,93,73,47,35,28,19,57,26,7,30.21,30.03,6,2,11,0.00
2013-10-7,89,79,61,51,37,25,61,26,11,30.08,29.95,6,3,15,0.00
2013-10-8,76,66,49,56,49,43,84,58,33,30.00,29.87,9,5,19,0.00
2013-10-9,60,56,50,54,52,49,97,85,68,29.89,29.80,9,5,20,0.19
2013-10-10,64,56,45,52,49,44,99,81,59,30.10,29.88,5,1,14,0.01
2013-10-11,80,62,46,53,49,45,97,70,33,30.14,29.98,8,2,14,0.00
2013-10-12,81,64,48,59,52,47,97,71,31,30.06,29.94,8,2,14,0.00
2013-10-13,74,61,55,56,54,51,97,80,47,30.09,29.98,9,2,17,0.00
2013-10-14,85,65,47,56,44,35,97,58,17,30.12,29.97,8,2,13,0.00
2013-10-15,86,67,47,46,40,32,84,44,15,30.07,29.95,7,2,12,0.00
2013-10-16,84,69,48,43,36,28,76,36,13,30.19,30.04,7,2,12,0.00
2013-10-17,85,67,45,44,39,30,79,41,14,30.14,29.98,7,1,14,0.00
2013-10-18,91,66,46,46,41,31,84,49,12,30.12,29.99,9,1,13,0.00
2013-10-19,92,68,47,47,39,25,85,45,9,30.13,30.01,7,2,13,0.00
2013-10-20,88,66,47,55,45,36,85,55,16,30.07,29.95,7,1,15,0.00
2013-10-21,89,68,47,55,47,37,91,57,16,30.07,29.95,5,1,10,0.00
2013-10-22,90,64,48,58,48,28,91,66,11,30.08,29.94,8,1,14,0.00
2013-10-23,75,60,53,59,55,52,98,86,57,30.03,29.95,7,2,12,0.00
2013-10-24,73,61,57,57,55,52,95,83,56,30.12,30.02,6,2,11,0.00
2013-10-25,84,62,50,60,52,49,98,77,32,30.20,30.08,5,2,12,0.00
2013-10-26,91,69,50,52,48,33,89,55,13,30.19,30.03,4,1,9,0.00
2013-10-27,85,65,50,56,49,41,94,63,22,30.05,29.85,9,3,17,0.00
2013-10-28,62,56,53,55,47,-100,96,83,68,30.01,29.89,9,6,19,0.00
2013-10-29,67,54,44,51,48,43,98,81,50,30.07,29.99,6,2,16,0.00
2013-10-30,73,55,43,52,46,42,97,77,34,30.13,30.03,4,1,15,0.00
2013-10-31,81,61,42,48,39,32,96,55,17,30.17,30.04,8,2,17,0.00
2013-11-1,87,62,43,40,36,32,79,47,15,30.21,30.01,5,1,10,0.00
2013-11-2,81,63,44,56,41,34,94,52,19,30.10,29.93,8,3,17,0.00
2013-11-3,70,58,50,55,53,49,98,84,55,30.01,29.87,7,2,11,0.00
2013-11-4,63,58,52,54,51,48,91,80,65,30.01,29.87,8,2,10,0.00
2013-11-5,75,58,43,48,34,23,98,53,16,30.24,30.01,11,4,18,0.00
2013-11-6,82,66,43,32,22,15,56,24,8,30.32,30.19,6,2,9,0.00
2013-11-7,86,72,43,34,26,21,69,22,9,30.23,30.08,6,2,10,0.00
2013-11-8,70,57,43,38,35,32,72,44,25,30.15,30.02,1,0,6,0.00
2013-11-9,80,58,41,38,33,22,81,48,12,30.16,30.06,6,1,12,0.00
2013-11-10,81,63,45,37,33,25,70,38,13,30.21,30.10,4,0,11,0.00
2013-11-11,88,63,42,49,40,34,80,50,17,30.19,30.08,8,1,14,0.00
2013-11-12,81,63,47,46,44,41,84,55,24,30.26,30.15,2,0,6,0.00
2013-11-13,91,66,48,44,40,35,77,45,14,30.18,29.98,6,2,11,0.00
2013-11-14,88,67,48,43,39,33,70,42,14,30.05,29.85,5,1,14,0.00
2013-11-15,63,58,54,56,52,42,93,81,58,29.85,29.76,7,3,16,0.00
2013-11-16,61,57,55,54,52,47,95,84,61,29.95,29.83,8,5,15,0.00
2013-11-18,71,61,48,53,52,47,96,74,51,30.23,30.09,4,1,11,0.00
2013-11-19,64,59,55,54,53,51,93,80,64,30.15,30.01,5,1,9,0.00
2013-11-20,62,58,54,55,54,52,95,87,74,30.04,29.95,7,3,11,0.00
2013-11-21,58,56,53,57,55,52,98,97,95,29.96,29.91,10,4,17,0.43
2013-11-22,53,49,44,52,47,43,99,94,85,30.02,29.91,8,3,15,0.17
2013-11-23,64,51,40,47,44,39,98,78,52,30.15,30.02,8,2,14,0.00
2013-11-24,65,53,39,46,43,38,98,74,46,30.25,30.15,4,1,9,0.00
2013-11-25,73,54,38,47,43,37,97,72,33,30.32,30.21,6,1,11,0.00
2013-11-26,75,60,41,47,42,39,97,57,27,30.30,30.12,8,2,14,0.00
2013-11-27,74,61,45,44,41,39,91,50,30,30.09,29.96,9,3,14,0.00
2013-11-28,69,53,41,48,43,39,95,72,39,30.14,30.00,8,1,13,0.00
2013-11-29,60,53,47,55,50,45,97,89,74,30.25,30.14,4,1,9,0.08
2013-11-30,75,56,46,54,47,41,98,77,37,30.26,30.14,8,1,13,0.00
2013-12-1,78,55,43,47,41,32,95,65,23,30.31,30.17,9,2,13,0.00
2013-12-2,75,56,39,43,40,37,91,60,25,30.23,30.01,3,0,6,0.00
2013-12-3,61,52,38,53,47,36,95,85,73,30.01,29.82,8,4,20,0.00
2013-12-4,58,51,40,54,43,37,95,76,54,30.02,29.82,7,2,14,0.00
2013-12-5,57,46,38,43,40,36,97,81,50,30.16,30.02,7,2,16,0.00
2013-12-6,53,45,35,42,39,34,96,81,63,30.24,30.14,6,2,12,0.00
2013-12-7,50,42,36,46,40,35,97,91,76,30.18,30.08,9,2,16,0.03
2013-12-8,51,42,33,44,39,30,98,88,69,30.25,30.14,7,1,11,0.01
2013-12-9,57,40,31,30,22,12,88,56,20,30.36,30.24,17,5,27,0.00
2013-12-10,67,56,39,23,20,18,53,26,15,30.28,30.14,7,4,14,0.00
2013-12-11,72,56,31,31,26,22,80,36,15,30.26,30.16,5,2,10,0.00
2013-12-12,70,52,37,43,32,26,85,53,19,30.28,30.19,6,1,11,0.00
2013-12-13,67,47,34,38,36,33,96,70,32,30.29,30.17,3,0,8,0.00
2013-12-14,74,53,34,36,30,23,90,51,16,30.38,30.26,13,3,25,0.00
2013-12-15,81,69,43,32,28,25,53,24,13,30.34,30.16,7,2,18,0.00
2013-12-16,85,75,52,36,33,31,54,23,15,30.25,30.15,7,2,14,0.00
2013-12-17,86,64,45,41,36,31,76,42,14,30.22,30.09,7,1,12,0.00
2013-12-18,72,61,53,50,41,36,90,51,27,30.09,29.92,11,2,19,0.00
2013-12-19,53,48,41,51,47,41,99,96,92,29.94,29.77,8,3,13,0.49
2013-12-20,61,47,36,48,43,36,100,89,47,30.01,29.83,3,1,10,0.01
2013-12-21,57,46,41,49,44,39,99,93,73,30.14,29.99,5,0,7,0.00
2013-12-22,70,52,37,50,42,36,99,75,37,30.34,30.14,5,1,9,0.01
2013-12-23,74,56,37,43,40,36,97,62,29,30.40,30.28,6,1,12,0.00
2013-12-24,79,62,38,43,39,36,93,49,22,30.30,30.16,5,2,11,0.00
2013-12-25,77,59,44,40,32,21,76,44,13,30.31,30.19,14,4,23,0.00
2013-12-26,78,67,51,25,21,19,36,19,11,30.24,30.15,11,6,22,0.00
2013-12-27,81,71,52,29,24,21,41,19,11,30.23,30.12,5,2,11,0.00
2013-12-28,73,63,46,38,30,25,62,32,17,30.15,29.99,7,3,13,0.00
2013-12-29,72,59,37,35,25,19,85,35,14,30.23,30.09,11,4,20,0.00
2013-12-30,75,59,41,29,23,16,51,29,11,30.35,30.22,5,1,9,0.00
2013-12-31,75,51,33,38,30,19,83,53,13,30.27,30.15,0,0,4,0.00
2014-1-1,80,55,35,36,31,27,85,50,15,30.21,30.10,5,1,12,0.00
2014-1-2,81,60,38,38,33,30,79,43,16,30.20,30.06,6,1,12,0.00